Flag for Turkey Weather past 2 weeks in Samsun, Turkey

Now
68 °F

Passing clouds.


Feels Like: 68 °F
Forecast: 48 / 65 °F
Wind: 6 mph from Northwest

Location: Samsun / Carsamba

Current Time: Oct 1, 2014 at 5:06:25 PM

Latest Report: Oct 1, 2014 at 3:50 PM


Visibility: N/A

Pressure: 30.21 "Hg

Humidity: 53%

Dew point: 50 °F

Location of SamsunLocation

Historic Weather in Samsun — Graph

°F

Samsun temperature yesterday

Maximum temperature yesterday: 66 °F (at 11:50 AM)
Minimum temperature yesterday: 50 °F (at 4:50 AM)
Average temperature yesterday: 59 °F

Past Weeks' High & Low Weather Summary

 TemperatureHumidityPressure
High88 °F (Sep 23, 1:50 PM)100% (Sep 17, 6:50 AM)30.30 "Hg (Sep 17, 6:50 AM)
Low45 °F (Oct 1, 6:50 AM)33% (Sep 23, 1:50 PM)29.50 "Hg (Sep 23, 7:50 PM)
Average64 °F78%29.97 "Hg
* Reported Sep 16 3:50 PM — Oct 1 3:50 PM, Samsun, Weather by CustomWeather, © 2014

Note: Actual official high and low records may vary slightly from our data, if they occured in-between our weather recording intervals... More about our weather records

Advertising

Samsun weather history for previous 24 hours

 ConditionsComfort  
Time TempWeatherWind HumidityBarometerVisibility
3:50 PM
Oct 1
68 °FPassing clouds.6 mph53%30.21 "HgN/A
2:50 PM68 °FPassing clouds.6 mph49%30.18 "HgN/A
1:50 PM68 °FPassing clouds.7 mph60%30.21 "HgN/A
12:50 PM66 °FPassing clouds.8 mph60%30.21 "HgN/A
11:50 AM66 °FPassing clouds.7 mph64%30.21 "HgN/A
10:50 AM66 °FPassing clouds.6 mph60%30.21 "HgN/A
9:50 AM64 °FPassing clouds.3 mph64%30.21 "HgN/A
8:50 AM59 °FSunny.2 mph88%30.21 "Hg10 mi
7:50 AM50 °FSunny.3 mph100%30.21 "Hg10 mi
6:50 AM45 °FClear.5 mph100%30.21 "Hg10 mi
5:50 AM46 °FClear.1 mph93%30.21 "Hg10 mi
4:50 AM46 °FClear.1 mph93%30.21 "Hg10 mi
3:50 AM48 °FClear.2 mph94%30.21 "Hg10 mi
2:50 AM46 °FClear.3 mph100%30.21 "Hg10 mi
1:50 AM48 °FClear.1 mph94%30.21 "Hg10 mi
12:50 AM48 °FClear.2 mph94%30.21 "Hg10 mi
11:50 PM
Sep 30
50 °FClear.5 mph94%30.24 "Hg10 mi
10:50 PM50 °FPassing clouds.6 mph94%30.24 "HgN/A
9:50 PM52 °FPassing clouds.3 mph94%30.27 "HgN/A
8:50 PM54 °FPassing clouds.3 mph94%30.27 "HgN/A
7:50 PM54 °FPassing clouds.3 mph94%30.27 "HgN/A
6:50 PM57 °FPassing clouds.1 mph82%30.27 "HgN/A
5:50 PM63 °FPassing clouds.2 mph68%30.27 "HgN/A
Weather by CustomWeather, © 2014

See weather overviewHow to use our weather pages